Wind_Speed
20 21 23 21 21 15 17 19 42 34 31 40 34 23 32 55 53 54 47 45 42 36 32 30 29 28 28 25 29 33 33 35 33 36 34 33 33 33 33 33 31 32 31 30
24 25 26 26 16 19 17 12 30 39 24 40 19 20 30 41 55 52 51 49 43 40 42 36 33 31 31 28 30 32 28 33 35 34 38 40 39 39 38 36 35 36 34 33
27 30 30 27 21 21 21 12 21 28 33 25 24 22 29 38 31 53 50 50 48 46 41 39 37 37 37 36 38 40 39 40 39 37 40 38 39 42 41 39 39 39 39 38
30 33 34 24 23 21 21 22 16 18 18 33 23 13 15 23 18 26 45 45 42 40 43 49 43 45 44 47 43 41 42 40 40 40 41 41 42 43 42 42 43 43 42 42
35 34 35 29 31 25 19 26 26 20 16 17 22 20 20 24 26 24 29 27 21 27 35 33 38 42 42 38 36 33 32 34 39 36 37 41 46 47 47 48 48 47 47 45
39 38 37 30 26 19 22 27 27 27 26 15 15 22 23 20 23 21 25 27 29 29 34 36 37 38 40 40 39 42 42 40 40 39 38 39 45 46 46 48 50 52 52 53
26 36 40 28 33 29 29 29 23 23 26 23 21 20 24 27 29 29 32 38 35 34 35 38 37 39 42 43 45 46 46 45 45 44 46 48 47 50 55 55 55 56 56 55
17 29 37 27 29 36 39 35 32 33 33 36 31 30 32 35 37 36 35 34 35 37 39 40 40 41 43 45 44 44 46 47 47 48 49 51 51 53 54 56 58 60 61 61
17 16 19 21 26 30 29 33 33 33 32 33 30 29 34 35 38 41 44 46 46 45 44 44 43 42 40 38 37 37 38 40 41 43 45 49 52 56 59 61 62 63 65 68
10 9 12 16 18 23 24 30 29 27 27 27 27 28 34 38 35 39 40 41 40 39 36 37 38 38 37 37 37 38 39 41 43 44 47 49 52 55 58 62 65 68 71 73
14 15 13 14 22 20 20 21 28 30 26 28 24 33 33 40 42 42 40 36 35 34 34 36 37 39 39 39 39 40 41 43 45 48 50 52 55 58 60 61 64 66 69 69
16 13 17 14 17 20 25 24 35 33 30 35 38 38 37 39 38 38 36 36 38 38 39 40 41 41 41 41 43 44 45 46 48 50 52 54 56 58 62 65 68 72 71 69
18 9 14 17 26 27 29 27 27 34 32 33 35 37 37 38 37 37 38 40 41 42 43 44 44 45 46 46 48 49 51 52 52 54 54 54 54 54 57 57 60 70 72 69
20 23 23 23 27 24 25 24 23 23 29 33 35 35 35 38 38 40 41 42 43 44 45 47 48 49 51 52 53 54 56 56 55 55 54 53 51 48 44 45 45 46 48 56
21 27 28 28 28 29 30 31 30 31 33 35 41 42 43 41 42 43 44 46 47 48 49 51 51 52 53 54 55 56 56 56 57 55 52 51 49 47 46 45 41 40 39 40
28 28 28 29 30 30 30 30 32 31 35 38 40 42 44 45 46 48 49 51 52 52 54 54 55 56 57 57 57 57 58 57 55 53 50 48 47 45 46 46 45 42 41 41
30 33 33 34 35 36 37 37 37 37 40 40 41 43 45 46 48 50 52 54 54 55 57 58 59 59 60 60 59 57 54 50 49 48 46 44 43 43 43 42 43 43 42 41
32 33 34 36 39 41 42 42 44 45 44 44 45 46 48 49 51 52 54 55 56 57 58 59 58 56 54 52 51 50 49 47 45 45 45 45 45 44 45 46 46 47 47 45
27 29 31 34 36 37 39 41 42 44 44 43 42 42 42 43 44 45 46 46 45 45 45 47 49 47 47 49 49 48 46 45 45 43 43 47 47 45 44 45 44 44 44 44
30 32 34 35 36 36 37 37 38 39 39 40 41 42 42 44 46 48 47 47 46 43 43 45 46 48 47 45 46 47 46 46 47 46 46 45 46 45 46 46 47 46 46 48
29 31 33 34 36 37 38 40 42 43 43 43 42 44 46 48 45 43 45 45 45 45 45 45 44 45 46 46 47 47 47 47 46 44 44 44 45 46 46 47 48 49 49 48
34 38 40 42 44 44 45 45 45 46 47 49 51 53 50 48 47 45 43 43 43 43 43 43 44 45 45 44 44 43 43 43 44 45 45 45 45 45 46 47 49 50 51 52
31 29 28 28 30 33 37 40 43 44 45 45 46 45 45 46 46 46 46 46 46 46 46 45 44 43 44 44 44 44 45 45 46 47 48 49 49 50 51 52 54 55 56 58
31 32 33 33 34 35 36 38 40 42 42 43 43 44 45 45 45 46 46 45 45 45 46 46 46 46 46 47 48 49 49 49 50 51 53 54 55 56 56 57 58 58 59 59
39 40 42 43 44 47 49 50 51 51 50 49 49 48 48 49 50 50 51 51 51 51 51 51 51 52 53 54 54 54 54 56 57 58 58 57 57 57 56 54 52 51 51 50
44 46 48 51 51 51 50 51 51 52 53 53 53 53 52 51 51 51 52 53 54 55 55 56 57 57 57 57 57 57 56 55 53 52 49 46 45 44 43 43 44 44 45 45
50 50 51 52 52 52 52 52 51 50 50 52 52 53 53 52 52 52 51 50 50 50 50 50 49 48 48 47 45 44 43 41 39 37 36 36 37 38 38 39 39 40 41 43
Wind_Direction
248 251 252 249 275 281 263 265 224 225 229 225 237 242 200 196 200 197 215 216 223 228 228 235 241 242 246 248 253 255 257 248 254 256 248 245 245 247 246 249 255 257 260 262
249 253 252 251 254 267 287 270 228 229 237 241 246 258 223 196 194 203 210 216 226 213 229 239 245 254 256 255 251 253 257 256 241 240 251 255 254 255 259 259 253 251 253 258
244 247 253 253 251 265 276 286 219 229 243 234 245 229 208 207 202 201 212 221 218 224 223 245 251 260 260 258 256 257 255 261 258 250 243 241 252 258 262 263 261 261 260 260
245 242 244 245 246 253 266 271 255 238 229 231 225 230 214 224 229 220 212 210 216 222 229 238 241 253 258 265 264 258 255 258 254 258 252 251 249 251 254 257 257 258 259 260
247 241 237 235 235 234 243 261 264 261 244 212 196 200 208 202 200 209 220 226 240 245 244 246 252 258 261 263 268 265 260 256 249 253 258 258 256 258 259 259 262 264 264 261
242 234 233 221 224 226 233 241 251 258 260 254 236 241 240 239 231 241 232 229 241 247 247 245 250 256 260 261 264 268 267 261 257 260 260 261 260 260 258 257 259 260 262 266
249 238 232 224 219 215 228 236 239 247 252 266 271 268 254 251 247 255 242 233 239 247 251 253 252 253 255 256 258 261 263 264 264 262 259 257 257 258 258 260 261 262 261 260
252 242 239 231 226 223 224 234 241 251 256 263 261 251 249 249 250 251 249 250 252 254 255 255 257 259 257 255 255 256 257 259 262 264 266 266 265 264 262 260 258 258 258 259
252 246 232 230 233 232 232 241 248 253 250 259 265 256 254 254 253 253 255 260 261 263 263 262 261 256 253 252 255 258 261 263 266 268 270 271 272 271 270 269 269 267 264 260
236 233 214 202 211 220 230 233 233 226 232 245 248 246 242 252 253 256 259 262 262 262 257 252 251 254 257 261 265 268 271 274 275 275 274 272 269 269 271 271 270 268 266 267
226 236 243 225 214 205 237 236 223 229 224 231 236 244 240 248 253 263 267 259 256 254 252 253 256 259 263 266 268 271 274 276 278 279 279 279 279 277 276 274 273 272 270 270
196 252 223 232 231 236 242 253 235 236 229 237 248 247 244 254 257 258 260 257 255 257 257 259 261 263 266 269 271 273 276 279 282 284 284 284 284 283 280 276 273 270 270 269
252 250 206 202 222 230 226 222 231 235 246 252 262 267 265 262 261 260 260 261 262 263 263 264 266 268 270 271 273 275 278 280 286 289 292 292 295 294 288 284 279 268 262 263
263 259 260 274 280 258 255 243 241 228 242 255 265 266 265 263 264 264 265 266 268 269 270 271 272 272 272 272 274 276 278 282 285 292 294 293 291 288 297 297 292 288 275 263
263 265 273 278 281 280 283 284 283 278 267 266 265 274 275 276 274 269 269 269 270 271 273 273 274 274 274 274 276 278 281 284 288 291 286 281 280 282 287 292 290 280 275 273
259 259 261 268 273 273 273 270 272 275 275 277 277 276 274 271 269 269 269 271 273 274 274 274 274 274 275 277 279 281 283 285 287 285 284 279 279 279 283 280 283 279 277 279
256 255 256 264 267 272 275 277 276 275 276 276 276 276 278 279 279 277 277 277 277 277 277 277 277 278 278 279 280 282 282 280 280 281 278 275 276 278 277 278 278 276 276 277
259 258 257 257 259 261 263 266 269 272 274 277 278 278 278 277 277 277 277 277 278 278 277 278 278 279 279 278 277 278 279 279 279 277 278 276 274 275 278 278 277 278 279 279
257 261 266 269 271 272 273 275 278 279 281 281 280 278 279 280 280 280 279 277 278 282 282 280 278 279 281 279 280 280 279 279 278 278 280 279 282 280 277 276 275 276 277 278
281 282 281 282 281 278 276 274 276 275 276 279 280 282 285 287 285 280 277 274 275 276 277 278 277 279 279 277 276 276 277 278 279 280 279 279 279 279 280 278 278 278 278 277
286 285 284 284 283 280 280 278 280 281 281 278 280 283 284 285 286 284 279 277 276 277 278 277 276 276 274 274 275 275 276 278 279 279 279 278 277 276 277 277 278 279 281 281
285 282 279 278 277 276 277 278 278 278 279 277 278 280 280 278 278 278 278 278 278 279 279 279 277 276 275 276 276 276 276 277 277 278 277 278 278 278 280 281 281 282 283 284
285 286 287 287 286 283 281 279 278 278 277 277 277 276 275 275 275 275 274 274 273 273 274 273 272 271 272 272 273 273 274 274 275 276 277 279 280 281 282 283 283 284 284 284
301 299 296 294 291 288 286 284 283 282 281 280 280 279 278 276 275 274 273 272 272 271 271 270 270 270 271 272 273 274 275 277 278 280 281 282 284 287 288 287 286 285 284 283
296 294 293 291 290 290 289 288 286 285 283 282 280 278 278 278 277 277 276 274 273 273 272 273 274 274 276 277 278 280 282 283 284 285 286 286 286 286 286 285 285 285 286 287
294 293 291 290 289 288 287 285 284 283 282 281 280 279 278 277 277 276 275 275 275 275 275 276 276 277 278 279 281 282 283 283 284 285 285 285 285 286 287 288 288 289 289 288
297 297 295 294 293 292 289 288 286 283 281 279 278 277 277 277 278 278 277 277 276 275 275 275 277 277 278 279 280 280 281 281 281 280 281 283 286 288 289 289 290 290 290 292
Height
5590 5591 5592 5593 5594 5593 5592 5593 5594 5601 5600 5603 5607 5612 5613 5615 5621 5626 5630 5633 5638 5644 5649 5653 5656 5658 5660 5663 5664 5665 5668 5670 5672 5671 5673 5673 5675 5676 5677 5678 5679 5679 5679 5679
5584 5585 5585 5586 5588 5588 5588 5587 5588 5595 5596 5598 5603 5604 5610 5612 5614 5620 5625 5628 5633 5635 5639 5643 5645 5648 5652 5655 5656 5657 5659 5659 5658 5660 5663 5665 5666 5667 5668 5669 5670 5670 5672 5671
5577 5578 5578 5581 5584 5583 5584 5584 5585 5588 5590 5593 5598 5601 5604 5607 5612 5614 5618 5624 5628 5630 5631 5635 5637 5639 5642 5646 5647 5647 5649 5650 5651 5653 5652 5654 5656 5657 5659 5660 5660 5661 5661 5661
5568 5570 5572 5577 5579 5579 5580 5580 5581 5584 5586 5588 5594 5597 5600 5604 5607 5609 5613 5616 5618 5621 5624 5627 5629 5631 5632 5633 5635 5637 5639 5639 5640 5640 5643 5644 5643 5646 5648 5647 5647 5648 5648 5649
5557 5561 5565 5571 5570 5574 5577 5577 5578 5581 5584 5583 5589 5593 5597 5599 5601 5603 5605 5607 5610 5612 5615 5617 5619 5621 5622 5623 5624 5627 5628 5630 5631 5631 5630 5631 5633 5635 5635 5633 5634 5637 5636 5635
5547 5550 5553 5564 5563 5568 5569 5570 5573 5574 5577 5582 5586 5589 5592 5595 5598 5599 5600 5600 5602 5606 5609 5611 5613 5614 5614 5614 5615 5616 5617 5618 5619 5620 5621 5621 5621 5621 5622 5621 5621 5622 5622 5623
5538 5539 5542 5554 5557 5561 5565 5568 5568 5571 5571 5574 5580 5583 5585 5586 5588 5589 5591 5594 5597 5600 5602 5603 5604 5605 5606 5606 5605 5605 5605 5605 5605 5606 5607 5608 5609 5609 5608 5608 5607 5607 5606 5606
5533 5533 5535 5546 5550 5554 5557 5558 5562 5565 5568 5569 5573 5576 5576 5576 5576 5579 5582 5586 5589 5590 5592 5593 5593 5593 5594 5595 5595 5595 5594 5594 5593 5593 5592 5593 5593 5593 5593 5593 5592 5591 5590 5589
5531 5529 5532 5537 5541 5545 5550 5554 5557 5559 5561 5562 5564 5566 5569 5571 5571 5572 5573 5574 5576 5578 5579 5580 5581 5583 5583 5583 5584 5584 5584 5584 5583 5582 5581 5580 5579 5577 5575 5574 5573 5573 5571 5571
5527 5527 5529 5532 5535 5538 5542 5546 5548 5550 5554 5557 5559 5560 5562 5562 5562 5562 5563 5565 5566 5567 5568 5569 5571 5572 5572 5573 5573 5573 5573 5572 5570 5569 5568 5566 5565 5563 5560 5558 5555 5552 5552 5550
5524 5524 5527 5529 5531 5534 5536 5538 5540 5544 5546 5550 5551 5552 5554 5554 5554 5555 5556 5557 5557 5558 5559 5561 5561 5561 5562 5563 5562 5562 5561 5559 5557 5555 5554 5552 5550 5547 5544 5541 5538 5534 5532 5529
5519 5521 5523 5526 5528 5530 5531 5532 5533 5534 5537 5540 5542 5544 5545 5546 5547 5548 5548 5549 5550 5550 5551 5551 5552 5551 5551 5551 5550 5549 5548 5546 5544 5541 5540 5537 5534 5530 5527 5523 5519 5515 5511 5510
5515 5515 5519 5519 5521 5524 5524 5527 5528 5528 5531 5532 5534 5534 5536 5538 5539 5538 5539 5540 5540 5541 5541 5541 5541 5540 5539 5538 5537 5536 5534 5532 5529 5526 5524 5520 5515 5509 5504 5499 5493 5489 5489 5488
5510 5512 5512 5511 5512 5515 5516 5517 5518 5519 5523 5525 5527 5527 5527 5527 5528 5528 5529 5529 5529 5528 5528 5527 5527 5526 5525 5524 5523 5521 5519 5517 5514 5510 5505 5501 5497 5493 5487 5483 5478 5473 5470 5470
5507 5508 5507 5507 5508 5508 5510 5510 5512 5513 5515 5516 5516 5516 5516 5517 5517 5517 5516 5515 5515 5514 5514 5513 5512 5511 5510 5509 5507 5505 5503 5500 5496 5492 5488 5486 5482 5479 5477 5473 5469 5465 5460 5458
5502 5502 5503 5503 5501 5502 5503 5504 5504 5504 5504 5504 5504 5504 5504 5504 5503 5503 5501 5501 5500 5500 5499 5498 5496 5495 5493 5492 5490 5487 5485 5482 5479 5475 5472 5469 5467 5465 5463 5461 5459 5456 5452 5449
5498 5497 5497 5496 5495 5494 5493 5492 5492 5493 5493 5492 5491 5490 5489 5488 5487 5486 5485 5484 5483 5483 5482 5480 5479 5477 5476 5473 5471 5468 5466 5464 5462 5460 5457 5455 5453 5450 5449 5447 5445 5443 5440 5437
5489 5489 5488 5488 5488 5488 5487 5486 5485 5484 5482 5481 5480 5479 5477 5476 5474 5472 5471 5469 5467 5466 5464 5462 5459 5457 5456 5454 5453 5451 5450 5448 5446 5445 5443 5441 5439 5436 5434 5432 5430 5428 5426 5424
5481 5481 5480 5479 5478 5478 5477 5476 5474 5472 5471 5469 5467 5466 5463 5461 5459 5457 5455 5453 5452 5449 5447 5445 5443 5442 5440 5439 5438 5437 5435 5434 5432 5430 5428 5426 5424 5422 5419 5417 5415 5413 5411 5409
5474 5472 5471 5469 5467 5465 5464 5462 5461 5459 5457 5456 5453 5451 5449 5446 5443 5441 5439 5438 5436 5434 5432 5430 5429 5427 5426 5424 5423 5422 5420 5419 5417 5416 5414 5412 5410 5407 5405 5403 5400 5398 5396 5394
5463 5461 5459 5457 5456 5454 5452 5450 5448 5446 5443 5441 5439 5437 5435 5432 5429 5427 5425 5423 5422 5419 5417 5416 5414 5413 5411 5410 5408 5406 5404 5403 5401 5399 5398 5396 5394 5393 5391 5388 5386 5383 5381 5378
5454 5451 5449 5446 5444 5441 5439 5436 5434 5432 5429 5427 5425 5422 5420 5417 5415 5413 5410 5409 5407 5405 5403 5401 5399 5398 5397 5395 5393 5391 5390 5387 5386 5384 5382 5380 5379 5377 5375 5372 5370 5367 5364 5361
5445 5441 5437 5434 5430 5427 5424 5421 5419 5416 5414 5411 5408 5406 5404 5402 5399 5397 5395 5393 5391 5389 5388 5386 5384 5382 5381 5379 5378 5376 5375 5373 5371 5369 5367 5365 5362 5360 5358 5355 5352 5349 5347 5343
5434 5430 5427 5423 5420 5416 5413 5409 5406 5402 5399 5396 5393 5391 5389 5387 5384 5382 5380 5378 5375 5373 5372 5370 5369 5367 5366 5364 5362 5361 5359 5356 5354 5352 5349 5347 5345 5342 5339 5336 5333 5330 5327 5323
5423 5419 5415 5411 5407 5402 5398 5394 5390 5386 5383 5380 5377 5374 5371 5368 5367 5364 5362 5361 5360 5358 5356 5354 5353 5351 5350 5347 5346 5344 5342 5339 5337 5335 5331 5328 5326 5323 5320 5317 5313 5310 5307 5304
5410 5405 5400 5395 5390 5386 5382 5377 5372 5368 5364 5361 5358 5355 5353 5351 5349 5347 5345 5342 5341 5339 5337 5335 5334 5333 5331 5329 5327 5325 5323 5321 5318 5316 5313 5310 5308 5306 5304 5301 5298 5295 5292 5289
5393 5387 5381 5376 5371 5366 5362 5357 5354 5350 5346 5342 5339 5337 5334 5332 5330 5328 5326 5325 5323 5321 5320 5318 5317 5315 5314 5312 5311 5308 5306 5305 5304 5302 5299 5297 5295 5293 5291 5288 5285 5282 5279 5275